Location: Unspecified
(43.3830°N, 0.0000°E)
Time: 09:42:19
(UTC+00:00)

N. Korean satellite - Pass Details

Date: 27 November 2020
Orbit: 453 x 502 km, 97.2° (Epoch: 16 January)

Event Time Altitude Azimuth Distance (km) Brightness Sun altitude
Rises 04:22:30 0° 35° (NE) 2,551 10.6 -29.6°
Reaches altitude 10° 04:25:47 10° 68° (ENE) 1,677 10.1 -29.0°
Maximum altitude 04:27:10 12° 91° (E) 1,569 10.0 -28.8°
Drops below altitude 10° 04:28:32 10° 113° (ESE) 1,681 10.1 -28.5°
Sets 04:31:51 0° 147° (SSE) 2,566 10.7 -27.9°
